TimeCDT,TemperatureF,Dew PointF,Humidity,Sea Level PressureIn,VisibilityMPH,Wind Direction,Wind SpeedMPH,Gust SpeedMPH,PrecipitationIn,Events,Conditions,WindDirDegrees,DateUTC
12:53 AM,60.1,55.9,86,30.09,9.0,Calm,Calm,-,N/A,,Clear,0,2013-07-03 05:53:00
1:53 AM,57.9,55.0,90,30.08,10.0,Calm,Calm,-,N/A,,Partly Cloudy,0,2013-07-03 06:53:00
2:53 AM,55.0,53.1,93,30.07,8.0,Calm,Calm,-,N/A,,Clear,0,2013-07-03 07:53:00
3:53 AM,54.0,51.1,90,30.07,8.0,Calm,Calm,-,N/A,,Clear,0,2013-07-03 08:53:00
4:53 AM,52.0,50.0,93,30.06,7.0,Calm,Calm,-,N/A,,Clear,0,2013-07-03 09:53:00
5:48 AM,51.8,48.2,88,30.08,6.0,Calm,Calm,-,N/A,,Scattered Clouds,0,2013-07-03 10:48:00
5:53 AM,51.1,50.0,96,30.06,5.0,Calm,Calm,-,N/A,,Scattered Clouds,0,2013-07-03 10:53:00
5:56 AM,51.8,50.0,94,30.08,1.8,Calm,Calm,-,N/A,,Mostly Cloudy,0,2013-07-03 10:56:00
6:04 AM,51.8,50.0,94,30.08,0.5,Calm,Calm,-,N/A,Fog,Fog,0,2013-07-03 11:04:00
6:09 AM,51.8,50.0,94,30.08,1.5,Calm,Calm,-,N/A,,Overcast,0,2013-07-03 11:09:00
6:12 AM,51.8,50.0,94,30.08,3.0,Calm,Calm,-,N/A,,Overcast,0,2013-07-03 11:12:00
6:17 AM,51.8,50.0,94,30.08,1.0,Calm,Calm,-,N/A,,Mist,0,2013-07-03 11:17:00
6:26 AM,50.0,48.2,94,30.08,2.0,Calm,Calm,-,N/A,,Overcast,0,2013-07-03 11:26:00
6:39 AM,51.8,50.0,94,30.08,4.0,Calm,Calm,-,N/A,,Overcast,0,2013-07-03 11:39:00
6:53 AM,52.0,50.0,93,30.07,6.0,Calm,Calm,-,N/A,,Scattered Clouds,0,2013-07-03 11:53:00
7:53 AM,60.1,55.9,86,30.06,5.0,Calm,Calm,-,N/A,,Clear,0,2013-07-03 12:53:00
8:53 AM,66.0,55.9,70,30.06,7.0,Calm,Calm,-,N/A,,Clear,0,2013-07-03 13:53:00
9:53 AM,73.0,54.0,51,30.04,10.0,South,9.2,-,N/A,,Clear,190,2013-07-03 14:53:00
10:53 AM,78.1,53.1,42,30.03,10.0,South,6.9,-,N/A,,Clear,180,2013-07-03 15:53:00
11:53 AM,81.0,50.0,34,30.00,10.0,SSW,8.1,-,N/A,,Clear,200,2013-07-03 16:53:00
12:53 PM,82.0,50.0,33,29.99,10.0,SSW,9.2,17.3,N/A,,Clear,200,2013-07-03 17:53:00
1:53 PM,82.9,46.0,27,29.98,10.0,SSE,6.9,-,N/A,,Scattered Clouds,160,2013-07-03 18:53:00
2:53 PM,84.9,48.0,28,29.96,10.0,South,10.4,-,N/A,,Partly Cloudy,190,2013-07-03 19:53:00
3:53 PM,84.9,46.0,26,29.96,10.0,South,11.5,18.4,N/A,,Clear,180,2013-07-03 20:53:00
4:53 PM,84.9,46.9,27,29.94,10.0,South,11.5,17.3,N/A,,Clear,190,2013-07-03 21:53:00
5:53 PM,84.9,48.0,28,29.92,10.0,South,9.2,-,N/A,,Clear,190,2013-07-03 22:53:00
6:53 PM,84.0,46.0,26,29.91,10.0,South,10.4,-,N/A,,Clear,170,2013-07-03 23:53:00
7:53 PM,81.0,50.0,34,29.90,10.0,SE,9.2,-,N/A,,Clear,130,2013-07-04 00:53:00
8:53 PM,77.0,53.1,43,29.90,10.0,SE,9.2,-,N/A,,Clear,140,2013-07-04 01:53:00
9:53 PM,72.0,54.0,53,29.92,10.0,SE,5.8,-,N/A,,Clear,140,2013-07-04 02:53:00
10:53 PM,70.0,54.0,57,29.93,10.0,SE,5.8,-,N/A,,Clear,140,2013-07-04 03:53:00
11:53 PM,68.0,53.1,59,29.93,10.0,SSE,8.1,-,N/A,,Clear,160,2013-07-04 04:53:00